Cloud_Cover
93 86 6 1 14 100 100 100 99 92 78 66 97 100 99 100 26 15 0 5 3 100 93 10 5 85 86 100 100 100 100 100 100 100 100 100 100 100 100 100 100 100 100 76 14
100 100 100 100 100 100 100 94 14 83 7 0 29 86 100 100 2 0 0 20 100 59 51 100 75 94 100 100 100 100 100 100 100 100 100 100 100 100 100 100 100 100 100 81 57
100 100 100 100 95 100 100 98 100 100 2 36 57 100 100 86 1 3 0 100 100 41 100 100 96 82 100 100 100 100 100 100 100 100 100 100 100 100 100 100 100 100 100 100 100
100 100 100 100 84 100 100 100 100 89 38 93 94 100 100 3 3 0 0 57 100 100 100 100 86 84 8 60 87 90 100 100 100 100 100 100 100 100 100 100 100 100 100 100 100
100 100 100 100 64 98 100 100 100 100 100 100 100 100 7 60 1 0 68 100 99 100 100 100 100 84 1 2 3 8 100 100 100 100 100 100 100 100 100 100 100 100 100 100 100
100 100 47 29 8 99 100 100 100 100 100 100 100 100 100 5 50 85 100 64 84 60 96 100 96 27 86 67 0 99 100 100 100 100 100 100 100 100 100 100 100 100 100 100 100
100 100 97 100 37 100 100 100 100 100 100 100 100 91 57 98 96 100 72 65 67 77 98 99 99 100 58 6 0 0 65 100 100 100 100 100 100 100 100 100 100 100 100 100 100
100 100 90 26 100 100 100 100 100 100 100 100 100 85 100 49 100 96 100 100 100 100 73 4 1 0 0 0 0 0 41 65 68 2 91 100 100 100 100 80 48 14 76 88 89
91 89 30 74 100 100 100 100 100 100 100 100 15 93 100 24 96 25 3 0 2 2 0 0 0 0 0 0 0 0 3 4 2 0 0 0 7 2 1 0 0 0 0 2 1
93 100 96 100 100 100 100 100 82 92 61 3 0 14 0 0 0 0 0 0 0 0 0 0 0 0 31 3 4 4 100 67 1 0 0 0 62 18 0 0 0 3 4 2 5
100 100 100 100 100 100 100 47 30 5 0 2 0 0 0 0 0 0 0 0 0 0 0 0 1 0 0 0 5 95 83 68 5 0 2 4 0 0 2 11 5 5 5 5 5
100 100 100 100 100 97 65 1 1 0 0 3 0 0 4 0 0 0 0 0 0 0 0 4 3 9 30 63 60 66 92 82 6 70 19 44 69 38 8 68 3 0 0 0 0
100 100 100 100 42 50 8 5 5 2 0 3 3 1 24 19 6 12 49 58 38 29 32 63 42 23 28 31 30 10 7 12 15 7 2 1 5 4 0 0 0 0 0 0 0
100 99 6 37 8 4 2 1 35 14 4 4 20 34 52 75 70 68 39 52 65 21 9 9 0 0 0 0 0 0 0 0 0 0 0 0 71 5 1 0 0 0 0 0 0
100 5 5 6 5 2 4 6 58 88 8 28 63 81 37 22 5 5 2 0 1 0 0 0 0 0 0 0 0 0 0 0 0 0 0 0 47 100 93 89 2 5 0 5 1
99 50 5 5 2 16 80 65 19 59 25 46 79 45 5 2 0 0 0 0 0 0 0 0 0 0 0 0 0 0 0 0 0 0 0 0 24 98 50 90 5 5 6 58 17
5 1 8 5 12 60 18 100 63 58 42 46 48 1 0 0 0 0 0 0 0 0 1 0 0 0 0 0 0 0 0 0 0 33 75 40 33 98 49 64 96 5 5 0 0
72 43 33 35 6 74 28 6 24 6 6 5 0 0 0 0 0 2 0 0 0 0 5 3 36 0 0 0 0 0 0 0 0 2 0 1 47 31 15 22 97 98 34 8 5
93 92 32 5 5 5 39 45 8 5 5 2 0 0 0 0 0 2 0 0 0 0 4 3 2 0 0 0 0 0 0 0 0 0 0 0 4 79 69 86 94 99 82 61 54
100 96 7 6 7 62 41 8 5 5 1 0 0 4 4 0 0 0 0 1 0 0 0 0 0 0 0 0 0 0 0 0 2 3 1 2 28 20 67 46 56 24 75 17 43
100 98 44 9 55 9 12 14 9 0 0 0 5 31 83 4 30 12 0 0 0 0 0 0 0 0 0 0 0 0 0 0 0 0 2 4 1 4 10 15 68 5 48 10 5
36 100 84 11 9 74 60 13 5 5 5 4 0 0 9 5 7 5 5 0 0 0 0 0 0 0 3 1 0 0 0 0 0 3 1 1 1 0 34 28 16 81 62 5 6
100 100 100 12 23 21 31 10 5 4 0 0 5 0 0 5 32 5 5 5 5 0 0 0 0 0 0 0 0 1 1 0 0 0 0 1 2 80 94 10 78 24 5 5 5
100 100 100 7 58 64 43 25 5 5 5 0 5 0 0 5 5 5 5 5 5 0 0 0 0 0 0 0 0 0 0 0 3 5 4 0 1 2 27 40 44 86 25 5 5
100 100 98 90 66 45 55 12 5 5 5 0 0 0 2 4 5 5 5 5 5 1 0 0 0 0 0 0 0 0 0 0 0 0 5 3 80 63 39 45 99 92 7 5 5
100 95 5 8 6 34 73 5 5 48 5 5 4 5 5 5 3 0 0 2 0 0 0 0 40 0 0 0 0 0 0 0 0 0 0 20 48 5 5 5 5 5 5 5 5
100 100 99 41 35 21 18 5 5 5 5 5 5 5 5 5 5 4 0 0 0 0 0 27 35 21 24 4 3 0 0 0 0 1 10 6 6 5 5 0 5 37 11 37 55